SALSAT
1 46495U 20068K 24011.40851706 .00007269 00000-0 44539-3 0 9995
2 46495 97.7977 327.2907 0016013 127.2490 233.0202 15.10381035180471
CAPE 3
1 47309U 21002A 24011.17879337 .00258986 00000-0 16242-2 0 9996
2 47309 60.6654 322.9010 0025521 62.1060 298.2631 15.75243646166590
AO-109
1 47311U 21002C 24011.15326626 .00102508 00000-0 12528-2 0 9996
2 47311 60.6752 329.1030 0028694 59.6023 300.7911 15.59304252166466
ExoCube 2
1 47319U 21002L 24011.37373038 .00084329 00000-0 11106-2 0 9998
2 47319 60.6726 331.7680 0029523 59.5300 300.8713 15.57381780166408
UVSQ-SAT
1 47438U 21006AB 24011.14364894 .00031856 00000-0 97396-3 0 9992
2 47438 97.3551 71.1535 0009232 67.0924 293.1293 15.33761749164415
YUSAT 1
1 47439U 21006AC 24011.60027006 .00050690 00000-0 12560-2 0 9991
2 47439 97.3547 73.6465 0007885 58.9285 301.2734 15.40208028164618
SOMP 2b
1 47445U 21006AJ 24011.58934668 .00029744 00000-0 94836-3 0 9999
2 47445 97.3514 70.4497 0009336 71.5158 288.7098 15.32435926164434
IDEASSat
1 47458U 21006AX 24011.69485198 .00026941 00000-0 89510-3 0 9993
2 47458 97.3615 71.3204 0008857 72.3622 287.8586 15.31135279164415
CubeSX-Sirius-HSE
1 47951U 21022V 24011.79427453 .00019646 00000-0 93670-3 0 9996
2 47951 97.4786 271.2269 0016008 337.9225 22.1318 15.19023323154639
CubeSX-HSE
1 47952U 21022W 24011.75754745 .00019400 00000-0 92290-3 0 9995
2 47952 97.4784 271.2592 0015878 337.6596 22.3945 15.19104545154633
KSU-Cubesat
1 47954U 21022Y 24011.71194766 .00022327 00000-0 10123-2 0 9990
2 47954 97.4791 271.9841 0014971 335.6300 24.4225 15.20746852154393
GRBAlpha
1 47959U 21022AD 24011.79805149 .00019890 00000-0 94353-3 0 9996
2 47959 97.4787 271.4191 0015781 337.5858 22.4685 15.19199436153468
Orbicraft-Zorkiy
1 47960U 21022AE 24011.82491339 .00020659 00000-0 94473-3 0 9992
2 47960 97.4823 272.2606 0015065 335.6631 24.3891 15.20467596154192
STECCO
1 47962U 21022AG 24011.77347484 .00049685 00000-0 15514-2 0 9997
2 47962 97.4797 277.2240 0007896 320.7691 39.2978 15.33000365153840
MO-110
1 47964U 21022AJ 24011.27464157 .00055444 00000-0 16408-2 0 9994
2 47964 97.4815 277.7272 0009078 315.0930 44.9578 15.34664854153827
FEES
1 48082U 21022AL 24011.69541275 .00333947 00000-0 30351-2 0 9999
2 48082 97.4724 283.7605 0002529 91.3894 268.7656 15.66929655153968
TUBIN
1 48900U 21059X 24011.80396425 .00015500 00000-0 63370-3 0 9996
2 48900 97.6231 152.8238 0006986 278.0940 81.9504 15.24429607140900
IT-SPINS
1 49017U 21013G 24011.66474616 .00219153 00000-0 14694-2 0 9993
2 49017 51.5801 118.7045 0006051 341.0873 18.9900 15.74015656142124
LEDSAT
1 49069U 21073D 24011.77090131 .00015362 00000-0 72860-3 0 9990
2 49069 97.4598 84.5148 0022798 114.4915 245.8700 15.19138549132519
CUTE
1 49263U 21088D 24011.69343957 .00014980 00000-0 83095-3 0 9997
2 49263 97.5204 79.3086 0014544 265.2504 94.7066 15.13772423125777
TeikyoSat 4
1 49396U 21102B 24011.61418874 .00003527 00000-0 26365-3 0 9996
2 49396 97.4855 61.9486 0014753 92.6554 267.6361 15.03322388119070
Z-Sat
1 49399U 21102E 24011.75990268 .00005628 00000-0 38145-3 0 9999
2 49399 97.4562 63.3539 0022483 78.2609 282.1140 15.06639415119277
KOSEN 1
1 49402U 21102H 24011.68436308 .00007222 00000-0 45798-3 0 9990
2 49402 97.4495 64.2355 0021186 65.5389 294.8047 15.09022890119379
HO-113
1 50466U 21131B 24011.82404161 .00000891 00000-0 30134-3 0 9995
2 50466 98.5391 97.6323 0003476 225.4837 134.6067 14.39290232107368
Tevel-3
1 50988U 22002E 24011.77501767 .00050779 00000-0 13386-2 0 9995
2 50988 97.4067 83.7350 0004985 207.4564 152.6418 15.38327675110674
Tevel-8
1 50989U 22002F 24011.80424644 .00050072 00000-0 13240-2 0 9993
2 50989 97.4084 83.8455 0004951 205.5628 154.5373 15.38237120110670
Tevel-5
1 50998U 22002Q 24011.76309877 .00053450 00000-0 13359-2 0 9992
2 50998 97.4058 84.4474 0005827 200.7555 159.3455 15.39945336110724
Tevel-6
1 50999U 22002R 24011.76276204 .00052911 00000-0 13236-2 0 9995
2 50999 97.4057 84.4345 0005856 200.4647 159.6365 15.39920776110726
Tevel-1
1 51013U 22002AF 24011.79304445 .00051104 00000-0 13505-2 0 9997
2 51013 97.4057 83.6544 0004844 205.6662 154.4343 15.38250459110672
NO-116
1 51031U 22002AZ 24011.65694424 .00418250 00000-0 26293-2 0 9998
2 51031 97.4108 91.8950 0003821 246.9914 113.0948 15.75542583111129
IRIS-A
1 51044U 22002BN 24011.75979752 .00017157 00000-0 68999-3 0 9994
2 51044 97.4091 79.4689 0006101 220.9855 139.0924 15.24960174110388
Tevel-7
1 51062U 22002CG 24011.80078166 .00050543 00000-0 13339-2 0 9992
2 51062 97.4078 83.8123 0004969 205.7926 154.3071 15.38293763110678
Tevel-4
1 51063U 22002CH 24011.75333178 .00051187 00000-0 13571-2 0 9997
2 51063 97.4076 83.7154 0004965 205.3224 154.7778 15.38148859110665
Tevel-2
1 51069U 22002CP 24011.77542859 .00050011 00000-0 13178-2 0 9991
2 51069 97.4064 83.7024 0004965 207.0083 153.0904 15.38344557110673
SO-115
1 51080U 22002DA 24011.16633603 .00070221 00000-0 14422-2 0 9993
2 51080 97.4358 89.2784 0006517 235.5835 124.4798 15.45740867110813
SO-114
1 51081U 22002DB 24011.17384314 .00073196 00000-0 14700-2 0 9990
2 51081 97.4350 89.3418 0006635 235.2692 124.7933 15.46383226110828
OreSat0
1 52017U 22026K 24011.52806359 .00038570 00000-0 11047-2 0 9991
2 52017 97.5057 21.0194 0019772 68.5807 291.7543 15.35627007101398
Planetum 1
1 52738U 22057G 24011.33674180 .00028406 00000-0 10095-2 0 9998
2 52738 97.5528 133.6511 0005923 350.4557 9.6569 15.28956880 90366
Foresail-1
1 52766U 22057AL 24011.27436152 .00017711 00000-0 70788-3 0 9990
2 52766 97.5666 134.1602 0010272 330.1780 29.8871 15.25132022 90331
SNUGLITE 2
1 52899U 22065F 24011.54296586 .00001966 00000-0 41859-3 0 9993
2 52899 98.0944 156.0679 0006694 288.1490 71.8981 14.60059485 81252
IO-117
1 53106U 22080B 24008.96757248 -.00000003 00000-0 00000-0 0 9993
2 53106 70.1365 248.1941 0008281 140.2235 219.9032 6.42557590 34976
SelfieSat
1 53951U 22057BC 24011.29708405 .00042895 00000-0 13091-2 0 9996
2 53951 97.5563 135.3099 0007095 335.5351 24.5553 15.33771546 90449
FO-118
1 54684U 22167C 24011.82004779 .00021691 00000-0 97564-3 0 9993
2 54684 97.5842 154.3179 0011605 337.6449 22.4279 15.21069406 60313
SSS-2B
1 56184U 23054G 24011.81000512 .00026243 00000-0 89066-3 0 9992
2 56184 97.3891 269.6392 0010223 29.8353 330.3469 15.30439980 41991
CIRBE
1 56188U 23054L 24011.24840795 .00044870 00000-0 13487-2 0 9997
2 56188 97.3837 269.4493 0009088 26.4898 333.6807 15.34226613 41947
INSPIRE-Sat 7
1 56211U 23054AK 24011.65319096 .00041665 00000-0 11891-2 0 9990
2 56211 97.3865 270.6686 0011722 4.2298 355.9043 15.35849540 42052
RoseyCubesat 1
1 56212U 23054AL 24011.76194308 .00047176 00000-0 12967-2 0 9998
2 56212 97.3869 271.0013 0011641 3.0254 357.1059 15.36995583 42089
SO-120
1 56992U 23084BU 24011.77644414 .00024492 00000-0 11753-2 0 9993
2 56992 97.5200 130.8221 0015038 214.1011 145.9259 15.18766943 32224
MRC-100
1 56993U 23084BV 24011.28554804 .00027163 00000-0 12802-2 0 9997
2 56993 97.5201 130.4189 0015038 216.5912 143.4296 15.19369831 32164
